• In Sweden
  • List of Countries
  • For 7 days
  • Water Temperature
  • Satellite Maps
  • Weather Map
  • Weather Widgets
  • user-avatar
    Login

    Hourly Weather Ivrovo

    Today, 23 July, Monday

    Time Temperature Precipitation Wind Pressure Humidity
    00:00 +19°C° 0 mm 4 mps 739 mmHg 96%
    01:00 +19°C° 0 mm 4 mps 739 mmHg 96%
    02:00 +19°C° 0 mm 4 mps 739 mmHg 96%
    03:00 +18°C° 0 mm 4 mps 739 mmHg 96%
    04:00 +18°C° 0 mm 4 mps 739 mmHg 96%
    05:00 +18°C° 0 mm 4 mps 739 mmHg 96%
    06:00 +18°C° 0.1 mm 4 mps 739 mmHg 95%
    07:00 +18°C° 0.1 mm 4 mps 739 mmHg 94%
    08:00 +17°C° 0.1 mm 5 mps 739 mmHg 94%
    09:00 +19°C° 0.1 mm 5 mps 739 mmHg 92%
    10:00 +19°C° 0.1 mm 5 mps 740 mmHg 91%
    11:00 +19°C° 0.1 mm 5 mps 740 mmHg 90%
    12:00 +19°C° 0.1 mm 5 mps 740 mmHg 89%
    13:00 +20°C° 0.1 mm 5 mps 740 mmHg 89%
    14:00 +20°C° 0.1 mm 5 mps 740 mmHg 89%
    15:00 +20°C° 0 mm 5 mps 740 mmHg 89%
    16:00 +20°C° 0 mm 5 mps 740 mmHg 89%
    17:00 +20°C° 0 mm 5 mps 740 mmHg 90%
    18:00 +20°C° 0.1 mm 5 mps 740 mmHg 90%
    19:00 +20°C° 0.1 mm 5 mps 740 mmHg 91%
    20:00 +19°C° 0.1 mm 5 mps 740 mmHg 92%
    21:00 +19°C° 0.3 mm 5 mps 740 mmHg 94%
    22:00 +19°C° 0.3 mm 4 mps 740 mmHg 95%
    23:00 +18°C° 0.3 mm 4 mps 740 mmHg 97%

    Tomorrow, 24 July, Tuesday

    Time Temperature Precipitation Wind Pressure Humidity
    00:00 +19°C° 0.1 mm 4 mps 740 mmHg 97%
    01:00 +19°C° 0.1 mm 4 mps 740 mmHg 97%
    02:00 +19°C° 0.1 mm 4 mps 740 mmHg 97%
    03:00 +19°C° 0.1 mm 4 mps 740 mmHg 96%
    04:00 +19°C° 0.1 mm 4 mps 740 mmHg 96%
    05:00 +19°C° 0.1 mm 4 mps 740 mmHg 96%
    06:00 +19°C° 0 mm 4 mps 741 mmHg 95%
    07:00 +20°C° 0 mm 4 mps 741 mmHg 94%
    08:00 +20°C° 0 mm 4 mps 741 mmHg 94%
    09:00 +21°C° 0.1 mm 4 mps 741 mmHg 91%
    10:00 +21°C° 0.1 mm 4 mps 741 mmHg 89%
    11:00 +22°C° 0.1 mm 4 mps 742 mmHg 87%
    12:00 +23°C° 0.3 mm 4 mps 742 mmHg 85%
    13:00 +25°C° 0.3 mm 4 mps 742 mmHg 83%
    14:00 +25°C° 0.3 mm 4 mps 742 mmHg 80%
    15:00 +25°C° 0.3 mm 4 mps 742 mmHg 81%
    16:00 +26°C° 0.3 mm 4 mps 742 mmHg 82%
    17:00 +26°C° 0.3 mm 3 mps 742 mmHg 83%
    18:00 +24°C° 0.2 mm 3 mps 742 mmHg 86%
    19:00 +22°C° 0.2 mm 3 mps 742 mmHg 90%
    20:00 +21°C° 0.2 mm 3 mps 743 mmHg 93%
    21:00 +21°C° 0 mm 3 mps 743 mmHg 94%
    22:00 +20°C° 0 mm 3 mps 743 mmHg 94%
    23:00 +20°C° 0 mm 3 mps 743 mmHg 94%

    Day after tomorrow, 25 July, Wednesday

    Time Temperature Precipitation Wind Pressure Humidity
    00:00 +19°C° 0 mm 3 mps 743 mmHg 95%
    01:00 +19°C° 0 mm 3 mps 743 mmHg 95%
    02:00 +19°C° 0 mm 3 mps 744 mmHg 95%
    03:00 +19°C° 0.3 mm 3 mps 744 mmHg 94%
    04:00 +19°C° 0.3 mm 3 mps 743 mmHg 94%
    05:00 +19°C° 0.3 mm 4 mps 743 mmHg 93%
    06:00 +19°C° 0.8 mm 4 mps 744 mmHg 91%
    07:00 +19°C° 0.8 mm 5 mps 744 mmHg 90%
    08:00 +19°C° 0.8 mm 5 mps 744 mmHg 89%
    09:00 +21°C° 0.1 mm 6 mps 744 mmHg 83%
    10:00 +22°C° 0.1 mm 6 mps 744 mmHg 77%
    11:00 +23°C° 0.1 mm 6 mps 744 mmHg 71%
    12:00 +23°C° 0 mm 6 mps 744 mmHg 71%
    13:00 +23°C° 0 mm 6 mps 743 mmHg 71%
    14:00 +23°C° 0 mm 6 mps 743 mmHg 71%
    15:00 +23°C° 0 mm 6 mps 743 mmHg 73%
    16:00 +23°C° 0 mm 5 mps 743 mmHg 75%
    17:00 +23°C° 0 mm 5 mps 743 mmHg 77%
    18:00 +22°C° 0.5 mm 5 mps 743 mmHg 80%
    19:00 +21°C° 0.5 mm 5 mps 743 mmHg 83%
    20:00 +20°C° 0.5 mm 6 mps 743 mmHg 85%
    21:00 +20°C° 0.3 mm 5 mps 744 mmHg 85%
    22:00 +19°C° 0.3 mm 5 mps 744 mmHg 85%
    23:00 +19°C° 0.3 mm 5 mps 744 mmHg 86%

    26 July, Thursday

    Time Temperature Precipitation Wind Pressure Humidity
    00:00 +19°C° 0.1 mm 4 mps 744 mmHg 86%
    01:00 +18°C° 0.1 mm 4 mps 744 mmHg 87%
    02:00 +17°C° 0.1 mm 4 mps 744 mmHg 88%
    03:00 +17°C° 0 mm 4 mps 745 mmHg 88%
    04:00 +17°C° 0 mm 4 mps 745 mmHg 88%
    05:00 +17°C° 0 mm 4 mps 745 mmHg 88%
    06:00 +19°C° 0 mm 4 mps 745 mmHg 84%
    07:00 +20°C° 0 mm 4 mps 745 mmHg 80%
    08:00 +22°C° 0 mm 4 mps 746 mmHg 76%
    09:00 +23°C° 0 mm 4 mps 746 mmHg 73%
    10:00 +26°C° 0 mm 5 mps 746 mmHg 70%
    11:00 +27°C° 0 mm 5 mps 746 mmHg 67%
    12:00 +28°C° 0 mm 5 mps 746 mmHg 66%
    13:00 +28°C° 0 mm 5 mps 746 mmHg 66%
    14:00 +29°C° 0 mm 5 mps 746 mmHg 65%
    15:00 +28°C° 0 mm 5 mps 746 mmHg 68%
    16:00 +28°C° 0 mm 5 mps 746 mmHg 71%
    17:00 +28°C° 0 mm 4 mps 746 mmHg 74%
    18:00 +27°C° 0 mm 4 mps 746 mmHg 77%
    19:00 +25°C° 0 mm 4 mps 747 mmHg 80%
    20:00 +23°C° 0 mm 4 mps 747 mmHg 83%
    21:00 +22°C° 0 mm 4 mps 747 mmHg 84%
    22:00 +21°C° 0 mm 3 mps 747 mmHg 85%
    23:00 +21°C° 0 mm 3 mps 747 mmHg 86%

    27 July, Friday

    Time Temperature Precipitation Wind Pressure Humidity
    00:00 +21°C° 0.1 mm 3 mps 748 mmHg 85%
    01:00 +21°C° 0.1 mm 3 mps 748 mmHg 84%
    02:00 +21°C° 0.1 mm 4 mps 748 mmHg 83%
    03:00 +21°C° 0.2 mm 4 mps 748 mmHg 85%
    04:00 +21°C° 0.2 mm 4 mps 748 mmHg 86%
    05:00 +21°C° 0.2 mm 4 mps 748 mmHg 88%
    06:00 +22°C° 0 mm 4 mps 748 mmHg 84%
    07:00 +23°C° 0 mm 4 mps 749 mmHg 81%
    08:00 +25°C° 0 mm 4 mps 749 mmHg 78%
    09:00 +26°C° 0 mm 4 mps 749 mmHg 73%
    10:00 +28°C° 0 mm 4 mps 749 mmHg 69%
    11:00 +29°C° 0 mm 5 mps 749 mmHg 65%
    12:00 +29°C° 0 mm 5 mps 749 mmHg 63%
    13:00 +30°C° 0 mm 5 mps 749 mmHg 61%
    14:00 +30°C° 0 mm 5 mps 749 mmHg 59%
    15:00 +30°C° 0 mm 4 mps 749 mmHg 63%
    16:00 +29°C° 0 mm 3 mps 749 mmHg 67%
    17:00 +29°C° 0 mm 3 mps 749 mmHg 70%
    18:00 +27°C° 0 mm 3 mps 749 mmHg 73%
    19:00 +25°C° 0 mm 3 mps 749 mmHg 75%
    20:00 +22°C° 0 mm 3 mps 749 mmHg 78%
    21:00 +22°C° 0 mm 3 mps 749 mmHg 79%
    22:00 +21°C° 0 mm 2 mps 749 mmHg 81%
    23:00 +20°C° 0 mm 2 mps 749 mmHg 82%

    28 July, Saturday

    Time Temperature Precipitation Wind Pressure Humidity
    00:00 +20°C° 0 mm 2 mps 749 mmHg 82%
    01:00 +20°C° 0 mm 2 mps 749 mmHg 82%
    02:00 +20°C° 0 mm 2 mps 749 mmHg 83%
    03:00 +20°C° 0 mm 2 mps 750 mmHg 84%
    04:00 +20°C° 0 mm 3 mps 750 mmHg 84%
    05:00 +20°C° 0 mm 3 mps 750 mmHg 85%
    06:00 +21°C° 0 mm 3 mps 750 mmHg 82%
    07:00 +24°C° 0 mm 3 mps 750 mmHg 79%
    08:00 +25°C° 0 mm 4 mps 750 mmHg 76%
    09:00 +26°C° 0 mm 4 mps 750 mmHg 71%
    10:00 +28°C° 0 mm 4 mps 750 mmHg 66%
    11:00 +29°C° 0 mm 4 mps 750 mmHg 60%
    12:00 +29°C° 0 mm 4 mps 750 mmHg 60%
    13:00 +29°C° 0 mm 4 mps 750 mmHg 59%
    14:00 +30°C° 0 mm 4 mps 749 mmHg 58%
    15:00 +29°C° 0 mm 4 mps 749 mmHg 61%
    16:00 +29°C° 0 mm 3 mps 749 mmHg 64%
    17:00 +29°C° 0 mm 3 mps 749 mmHg 67%
    18:00 +27°C° 0.1 mm 3 mps 749 mmHg 70%
    19:00 +25°C° 0.1 mm 3 mps 750 mmHg 73%
    20:00 +24°C° 0.1 mm 2 mps 750 mmHg 76%
    21:00 +23°C° 0 mm 2 mps 750 mmHg 76%
    22:00 +21°C° 0 mm 2 mps 750 mmHg 77%
    23:00 +21°C° 0 mm 3 mps 750 mmHg 77%
    Show more